Find Starlink 11156

NORAD ID: 61056 Int'l Des: 2024-164 Owner: SPXS Country: US Constellation: starlink operational
LEOCIRCULAR

リアルタイム位置

3D地球を読み込み中...

Starlink 11156について

説明を読み込み中...

次回通過

Passes for default location (London). Set your location on the main map for personalized predictions.

高度履歴

Loading altitude history...

軌道要素

1 61056U 24164G 26126.97458120 -.00001098 00000-0 -44198-5 0 9999
2 61056 53.1607 23.1753 0001465 62.0219 298.0947 15.68819118 94582
Epoch: May 6, 2026 • Age: 19 hours

現在のステータス

高度 363.7 km
速度 7.70 km/s
衛星直下点 29.46°N, 33.69°E
打ち上げ日 Sep 13, 2024
運用期間 1.6 years
タイプ internet

技術仕様

分類 Payload
質量 960.00 kg
乾燥質量 910.00 kg
総質量 960.00 kg
長さ 0.30 m
直径 4.10 m
スパン 29.00 m
形状 Box + pan
製造者 SPXS
バスタイプ Starlink V2MD
フェーズステータス In Orbit
所有者/国 SPXS/US

Most Searched